,,Stat6,,Stat2,,Stat8,,Stat9,,Stat10,,Wind1,,Wind1,
time,status,PA1M_AVG,status,PR1M_SUM,status,RH1M_AVG,status,SR1M_AVG,status,TA1M_AVG,status,W1dAve1m,status,W1sAve1m,
2005-07-16, 00:00:01,VALID,919.146,VALID,0,VALID,99.5514,VALID,0,VALID,19.0673,VALID,119,VALID,0.765795,
2005-07-16, 00:01:01,VALID,919.141,VALID,0,VALID,99.4764,VALID,0,VALID,19.0574,VALID,142,VALID,1.13154,
2005-07-16, 00:02:01,VALID,919.138,VALID,0,VALID,99.4751,VALID,0,VALID,19.0547,VALID,141,VALID,1.32504,
2005-07-16, 00:03:01,VALID,919.151,VALID,0,VALID,99.4013,VALID,-0.0169808,VALID,19.048,VALID,138,VALID,1.22637,
2005-07-16, 00:04:00,VALID,919.169,VALID,0,VALID,99.2589,VALID,-0.0169808,VALID,19.0507,VALID,134,VALID,1.25632,
2005-07-16, 00:05:01,VALID,919.196,VALID,0,VALID,99.1152,VALID,-0.0169808,VALID,19.0609,VALID,137,VALID,1.26524,
2005-07-16, 00:06:01,VALID,919.199,VALID,0,VALID,98.9118,VALID,0,VALID,19.0542,VALID,136,VALID,1.02823,
2005-07-16, 00:07:01,VALID,919.203,VALID,0,VALID,98.6651,VALID,0,VALID,19.0574,VALID,128,VALID,1.55934,
2005-07-16, 00:08:00,VALID,919.2,VALID,0,VALID,98.557,VALID,0,VALID,19.0765,VALID,139,VALID,1.31845,
2005-07-16, 00:09:01,VALID,919.185,VALID,0,VALID,98.4209,VALID,-0.0169808,VALID,19.087,VALID,133,VALID,1.79383,
2005-07-16, 00:10:01,VALID,919.17,VALID,0,VALID,98.5188,VALID,0.0169808,VALID,19.0636,VALID,133,VALID,1.90048,
2005-07-16, 00:11:01,VALID,919.155,VALID,0,VALID,98.7579,VALID,0,VALID,19.0736,VALID,133,VALID,1.6263,
2005-07-16, 00:12:01,VALID,919.133,VALID,0,VALID,98.9016,VALID,0,VALID,19.0574,VALID,134,VALID,1.60338,
2005-07-16, 00:13:01,VALID,919.128,VALID,0,VALID,99.0911,VALID,-0.0169808,VALID,19.0671,VALID,137,VALID,1.9737,
2005-07-16, 00:14:01,VALID,919.099,VALID,0,VALID,99.1597,VALID,0.0169808,VALID,19.0671,VALID,141,VALID,2.08358,
2005-07-16, 00:15:01,VALID,919.086,VALID,0.2,VALID,99.2347,VALID,0,VALID,19.0673,VALID,135,VALID,1.70721,
2005-07-16, 00:16:01,VALID,919.073,VALID,0,VALID,99.2958,VALID,0,VALID,19.0673,VALID,135,VALID,1.3552,
2005-07-16, 00:17:01,VALID,919.084,VALID,0,VALID,99.2653,VALID,-0.0169808,VALID,19.051,VALID,117,VALID,1.60847,
2005-07-16, 00:18:01,VALID,919.092,VALID,0,VALID,99.1788,VALID,-0.0169808,VALID,19.0417,VALID,133,VALID,1.32927,
2005-07-16, 00:19:01,VALID,919.098,VALID,0,VALID,98.9995,VALID,0,VALID,19.0286,VALID,138,VALID,1.62556,
2005-07-16, 00:20:01,VALID,919.106,VALID,0,VALID,98.8202,VALID,-0.0169808,VALID,19.0187,VALID,136,VALID,1.83631,
2005-07-16, 00:21:01,VALID,919.125,VALID,0,VALID,98.6524,VALID,-0.0169808,VALID,19.0447,VALID,128,VALID,1.56545,
2005-07-16, 00:22:01,VALID,919.115,VALID,0,VALID,98.276,VALID,0,VALID,19.0805,VALID,136,VALID,1.90086,
2005-07-16, 00:23:01,VALID,919.106,VALID,0,VALID,96.2172,VALID,-0.0169808,VALID,19.0676,VALID,132,VALID,2.39367,
2005-07-16, 00:24:01,VALID,919.095,VALID,0,VALID,95.0207,VALID,-0.0169808,VALID,19.0706,VALID,141,VALID,2.18732,
2005-07-16, 00:25:01,VALID,919.088,VALID,0,VALID,93.9818,VALID,-0.0339617,VALID,19.087,VALID,137,VALID,2.37656,
2005-07-16, 00:26:01,VALID,919.069,VALID,0,VALID,93.0509,VALID,-0.0339617,VALID,19.0897,VALID,127,VALID,1.73661,
2005-07-16, 00:27:01,VALID,919.055,VALID,0,VALID,92.0972,VALID,0,VALID,19.0798,VALID,137,VALID,2.65536,
2005-07-16, 00:28:01,VALID,919.036,VALID,0,VALID,92.0362,VALID,-0.0169808,VALID,19.1061,VALID,137,VALID,2.31492,
2005-07-16, 00:29:01,VALID,919.029,VALID,0,VALID,92.3554,VALID,0,VALID,19.1222,VALID,138,VALID,2.0659,
2005-07-16, 00:30:01,VALID,919.014,VALID,0,VALID,93.3002,VALID,0,VALID,19.1222,VALID,133,VALID,1.99077,
2005-07-16, 00:31:01,VALID,919.004,VALID,0,VALID,94.1941,VALID,-0.0169808,VALID,19.0999,VALID,133,VALID,1.91043,
2005-07-16, 00:32:01,VALID,918.988,VALID,0,VALID,94.7447,VALID,0,VALID,19.077,VALID,126,VALID,1.86757,
2005-07-16, 00:33:01,VALID,918.996,VALID,0,VALID,94.6188,VALID,0,VALID,19.0706,VALID,125,VALID,2.03398,
2005-07-16, 00:34:01,VALID,919.002,VALID,0,VALID,94.1763,VALID,0,VALID,19.0807,VALID,127,VALID,1.68514,
2005-07-16, 00:35:01,VALID,919.002,VALID,0,VALID,93.4121,VALID,0,VALID,19.0544,VALID,130,VALID,1.89913,
2005-07-16, 00:36:01,VALID,918.99,VALID,0,VALID,92.8666,VALID,-0.0169808,VALID,19.042,VALID,121,VALID,1.87936,
2005-07-16, 00:37:01,VALID,919.007,VALID,0,VALID,92.6021,VALID,-0.101885,VALID,19.0303,VALID,130,VALID,2.07795,
2005-07-16, 00:38:00,VALID,919.011,VALID,0,VALID,93.1209,VALID,-0.0849042,VALID,19.0201,VALID,122,VALID,1.65607,
2005-07-16, 00:39:00,VALID,918.978,VALID,0,VALID,93.0204,VALID,-0.101885,VALID,18.9975,VALID,126,VALID,1.8851,
2005-07-16, 00:40:00,VALID,918.975,VALID,0,VALID,92.4787,VALID,-0.101885,VALID,18.992,VALID,114,VALID,2.52361,
2005-07-16, 00:41:00,VALID,918.963,VALID,0,VALID,92.3732,VALID,-0.0849042,VALID,18.9786,VALID,112,VALID,1.8423,
2005-07-16, 00:42:00,VALID,918.979,VALID,0,VALID,92.2397,VALID,-0.0849042,VALID,18.962,VALID,115,VALID,2.17764,
2005-07-16, 00:43:00,VALID,918.971,VALID,0,VALID,92.213,VALID,-0.0169808,VALID,18.9613,VALID,113,VALID,1.64884,
2005-07-16, 00:44:00,VALID,918.968,VALID,0,VALID,92.0158,VALID,0,VALID,18.9511,VALID,129,VALID,1.63009,
2005-07-16, 00:45:00,VALID,918.961,VALID,0,VALID,90.8383,VALID,0,VALID,18.9613,VALID,121,VALID,2.246,
2005-07-16, 00:46:00,VALID,918.967,VALID,0,VALID,90.4963,VALID,-0.0169808,VALID,18.9938,VALID,123,VALID,1.64043,
2005-07-16, 00:47:00,VALID,918.959,VALID,0,VALID,90.8625,VALID,0,VALID,19.0219,VALID,120,VALID,1.71736,
2005-07-16, 00:48:00,VALID,918.952,VALID,0,VALID,91.1168,VALID,-0.0169808,VALID,19.0194,VALID,141,VALID,1.77725,
2005-07-16, 00:49:00,VALID,918.946,VALID,0,VALID,91.3088,VALID,-0.0169808,VALID,19.0162,VALID,125,VALID,1.84557,
2005-07-16, 00:50:00,VALID,918.938,VALID,0,VALID,91.3775,VALID,0,VALID,18.9965,VALID,124,VALID,1.73194,
2005-07-16, 00:51:00,VALID,918.922,VALID,0,VALID,91.6293,VALID,-0.0169808,VALID,18.9901,VALID,140,VALID,1.61083,
2005-07-16, 00:52:00,VALID,918.929,VALID,0,VALID,90.5599,VALID,-0.0339617,VALID,18.9806,VALID,121,VALID,2.30393,
2005-07-16, 00:53:00,VALID,918.923,VALID,0,VALID,90.4607,VALID,-0.0169808,VALID,19.0032,VALID,125,VALID,1.5597,
2005-07-16, 00:54:00,VALID,918.925,VALID,0,VALID,91.0405,VALID,-0.0339617,VALID,19.0154,VALID,134,VALID,2.14222,
2005-07-16, 00:55:00,VALID,918.948,VALID,0,VALID,90.8739,VALID,0,VALID,18.9968,VALID,128,VALID,2.27381,
2005-07-16, 00:56:00,VALID,918.953,VALID,0,VALID,91.0621,VALID,0,VALID,18.9873,VALID,130,VALID,1.7965,
2005-07-16, 00:57:00,VALID,918.939,VALID,0,VALID,91.0812,VALID,-0.0339617,VALID,18.991,VALID,138,VALID,2.23661,
2005-07-16, 00:58:00,VALID,918.945,VALID,0,VALID,91.2236,VALID,0.0849042,VALID,18.9827,VALID,129,VALID,2.28161,
2005-07-16, 00:59:00,VALID,918.945,VALID,0,VALID,91.6662,VALID,0.0849042,VALID,18.9663,VALID,119,VALID,1.51243,
2005-07-16, 01:00:00,VALID,918.937,VALID,0,VALID,91.8073,VALID,0.0679233,VALID,18.931,VALID,101,VALID,1.1263,
2005-07-16, 01:01:00,VALID,918.926,VALID,0,VALID,91.8734,VALID,0.0849042,VALID,18.8893,VALID,123,VALID,1.80431,
2005-07-16, 01:02:00,VALID,918.913,VALID,0,VALID,91.7564,VALID,0.0849042,VALID,18.8697,VALID,131,VALID,2.43979,
2005-07-16, 01:03:00,VALID,918.904,VALID,0,VALID,92.1646,VALID,0.0509425,VALID,18.8861,VALID,135,VALID,1.72724,
2005-07-16, 01:04:00,VALID,918.901,VALID,0,VALID,92.0146,VALID,0.0679233,VALID,18.8761,VALID,139,VALID,2.16202,
2005-07-16, 01:05:00,VALID,918.876,VALID,0,VALID,92.4584,VALID,0.0339617,VALID,18.8796,VALID,136,VALID,1.88415,
2005-07-16, 01:06:00,VALID,918.867,VALID,0,VALID,92.1443,VALID,0.0169808,VALID,18.8694,VALID,129,VALID,2.63335,
2005-07-16, 01:07:00,VALID,918.858,VALID,0,VALID,92.5283,VALID,0.0849042,VALID,18.8729,VALID,132,VALID,1.67914,
2005-07-16, 01:08:00,VALID,918.842,VALID,0,VALID,92.6873,VALID,0.101885,VALID,18.8598,VALID,119,VALID,1.67028,
2005-07-16, 01:09:00,VALID,918.829,VALID,0,VALID,93.0153,VALID,0.0849042,VALID,18.857,VALID,138,VALID,1.85293,
2005-07-16, 01:10:00,VALID,918.829,VALID,0,VALID,93.5151,VALID,0.0849042,VALID,18.8277,VALID,143,VALID,1.75747,
2005-07-16, 01:11:00,VALID,918.817,VALID,0,VALID,93.5901,VALID,0.0509425,VALID,18.7825,VALID,141,VALID,1.99293,
2005-07-16, 01:12:00,VALID,918.82,VALID,0.2,VALID,93.7033,VALID,0.0679233,VALID,18.7795,VALID,134,VALID,1.78754,
2005-07-16, 01:13:00,VALID,918.82,VALID,0,VALID,93.744,VALID,-0.0339617,VALID,18.7742,VALID,147,VALID,2.32292,
2005-07-16, 01:14:00,VALID,918.824,VALID,0,VALID,93.9436,VALID,-0.0339617,VALID,18.7745,VALID,133,VALID,1.92914,
2005-07-16, 01:15:00,VALID,918.812,VALID,0,VALID,94.1738,VALID,-0.0509425,VALID,18.7678,VALID,135,VALID,2.08285,
2005-07-16, 01:16:00,VALID,918.801,VALID,0,VALID,94.1343,VALID,-0.0509425,VALID,18.765,VALID,130,VALID,2.22153,
2005-07-16, 01:17:00,VALID,918.774,VALID,0,VALID,94.0937,VALID,-0.0679233,VALID,18.7387,VALID,142,VALID,2.10501,
2005-07-16, 01:18:00,VALID,918.754,VALID,0,VALID,93.8788,VALID,0,VALID,18.7484,VALID,131,VALID,2.45373,
2005-07-16, 01:19:00,VALID,918.739,VALID,0,VALID,93.7122,VALID,-0.0339617,VALID,18.7581,VALID,128,VALID,2.10938,
2005-07-16, 01:20:00,VALID,918.713,VALID,0,VALID,93.7122,VALID,-0.0339617,VALID,18.7447,VALID,135,VALID,2.1873,
2005-07-16, 01:21:00,VALID,918.702,VALID,0,VALID,93.7503,VALID,-0.0339617,VALID,18.7553,VALID,132,VALID,2.50917,
2005-07-16, 01:22:00,VALID,918.673,VALID,0,VALID,93.5697,VALID,-0.0169808,VALID,18.7745,VALID,131,VALID,2.5928,
2005-07-16, 01:23:00,VALID,918.669,VALID,0,VALID,93.4935,VALID,-0.0339617,VALID,18.7934,VALID,132,VALID,2.33467,
2005-07-16, 01:24:00,VALID,918.632,VALID,0,VALID,93.2658,VALID,-0.0339617,VALID,18.8298,VALID,132,VALID,2.27219,
2005-07-16, 01:25:00,VALID,918.645,VALID,0,VALID,93.4057,VALID,0,VALID,18.8711,VALID,124,VALID,1.33834,
2005-07-16, 01:26:00,VALID,918.613,VALID,0,VALID,93.1908,VALID,0,VALID,18.8741,VALID,127,VALID,2.86812,
2005-07-16, 01:27:00,VALID,918.63,VALID,0,VALID,93.2582,VALID,0,VALID,18.9098,VALID,111,VALID,1.99368,
2005-07-16, 01:28:00,VALID,918.618,VALID,0.2,VALID,93.2811,VALID,0,VALID,18.9329,VALID,112,VALID,2.01847,
2005-07-16, 01:29:00,VALID,918.609,VALID,0,VALID,93.2315,VALID,-0.0339617,VALID,18.9359,VALID,130,VALID,1.75089,
2005-07-16, 01:30:00,VALID,918.603,VALID,0,VALID,93.2582,VALID,-0.0169808,VALID,18.9327,VALID,123,VALID,2.22911,
2005-07-16, 01:31:00,VALID,918.572,VALID,0,VALID,93.6117,VALID,0.0169808,VALID,18.9391,VALID,113,VALID,1.25856,
2005-07-16, 01:32:00,VALID,918.568,VALID,0,VALID,93.4985,VALID,0,VALID,18.9034,VALID,124,VALID,1.69886,
2005-07-16, 01:33:00,VALID,918.566,VALID,0,VALID,93.2455,VALID,-0.0169808,VALID,18.8843,VALID,145,VALID,2.13261,
2005-07-16, 01:34:00,VALID,918.548,VALID,0,VALID,93.6155,VALID,0,VALID,18.8743,VALID,141,VALID,1.37954,
2005-07-16, 01:35:00,VALID,918.547,VALID,0,VALID,93.9881,VALID,0,VALID,18.8425,VALID,161,VALID,1.28633,
2005-07-16, 01:36:00,VALID,918.535,VALID,0,VALID,94.4548,VALID,-0.0169808,VALID,18.7842,VALID,146,VALID,1.16679,
2005-07-16, 01:37:00,VALID,918.511,VALID,0,VALID,94.4116,VALID,-0.0169808,VALID,18.736,VALID,141,VALID,2.14135,
2005-07-16, 01:38:00,VALID,918.496,VALID,0,VALID,94.072,VALID,-0.0509425,VALID,18.7201,VALID,138,VALID,2.06562,
2005-07-16, 01:39:00,VALID,918.501,VALID,0,VALID,93.9042,VALID,-0.0679233,VALID,18.7558,VALID,131,VALID,2.44772,
2005-07-16, 01:40:00,VALID,918.502,VALID,0,VALID,93.66,VALID,-0.0509425,VALID,18.7909,VALID,141,VALID,1.47514,
2005-07-16, 01:41:00,VALID,918.477,VALID,0.2,VALID,93.9525,VALID,-0.0509425,VALID,18.8038,VALID,134,VALID,1.238,
2005-07-16, 01:42:00,VALID,918.459,VALID,0,VALID,94.2946,VALID,-0.0679233,VALID,18.7752,VALID,148,VALID,1.47187,
2005-07-16, 01:43:00,VALID,918.446,VALID,0,VALID,94.882,VALID,-0.0849042,VALID,18.7496,VALID,143,VALID,1.68452,
2005-07-16, 01:44:00,VALID,918.429,VALID,0,VALID,95.1376,VALID,-0.0849042,VALID,18.7272,VALID,144,VALID,1.7332,
2005-07-16, 01:45:00,VALID,918.412,VALID,0,VALID,95.1224,VALID,-0.101885,VALID,18.6982,VALID,135,VALID,1.70536,
2005-07-16, 01:46:00,VALID,918.416,VALID,0,VALID,95.3792,VALID,-0.0849042,VALID,18.6947,VALID,139,VALID,1.03834,
2005-07-16, 01:47:00,VALID,918.409,VALID,0,VALID,95.907,VALID,-0.0849042,VALID,18.6883,VALID,152,VALID,1.18917,
2005-07-16, 01:48:00,VALID,918.411,VALID,0,VALID,96.3062,VALID,-0.0679233,VALID,18.6691,VALID,135,VALID,0.775436,
2005-07-16, 01:49:00,VALID,918.397,VALID,0,VALID,96.216,VALID,-0.0679233,VALID,18.6433,VALID,126,VALID,1.26674,
2005-07-16, 01:50:00,VALID,918.387,VALID,0,VALID,96.1575,VALID,-0.0679233,VALID,18.6138,VALID,111,VALID,1.30859,
2005-07-16, 01:51:00,VALID,918.374,VALID,0.2,VALID,95.9197,VALID,-0.0679233,VALID,18.5983,VALID,125,VALID,1.28982,
2005-07-16, 01:52:00,VALID,918.36,VALID,0,VALID,96.0176,VALID,-0.0849042,VALID,18.5824,VALID,143,VALID,0.867188,
2005-07-16, 01:53:00,VALID,918.343,VALID,0,VALID,96.2185,VALID,-0.0849042,VALID,18.5628,VALID,138,VALID,0.884816,
2005-07-16, 01:54:00,VALID,918.303,VALID,0,VALID,96.4983,VALID,-0.118866,VALID,18.56,VALID,134,VALID,0.871094,
2005-07-16, 01:55:00,VALID,918.298,VALID,0,VALID,96.9382,VALID,-0.0849042,VALID,18.5204,VALID,127,VALID,0.521257,
2005-07-16, 01:56:00,VALID,918.28,VALID,0,VALID,97.3846,VALID,-0.101885,VALID,18.495,VALID,152,VALID,0.770833,
2005-07-16, 01:57:00,VALID,918.261,VALID,0,VALID,97.8156,VALID,-0.0849042,VALID,18.4692,VALID,156,VALID,0.946615,
2005-07-16, 01:58:00,VALID,918.266,VALID,0,VALID,98.0496,VALID,-0.101885,VALID,18.4233,VALID,147,VALID,1.12835,
2005-07-16, 01:59:00,VALID,918.252,VALID,0,VALID,98.262,VALID,-0.0849042,VALID,18.4041,VALID,142,VALID,1.13393,
2005-07-16, 02:00:00,VALID,918.244,VALID,0.2,VALID,98.468,VALID,-0.101885,VALID,18.3751,VALID,140,VALID,0.638765,
2005-07-16, 02:01:00,VALID,918.235,VALID,0,VALID,98.501,VALID,-0.101885,VALID,18.3495,VALID,140,VALID,1.10801,
2005-07-16, 02:02:00,VALID,918.229,VALID,0,VALID,98.5417,VALID,-0.101885,VALID,18.3366,VALID,126,VALID,1.05859,
2005-07-16, 02:03:00,VALID,918.224,VALID,0,VALID,98.4578,VALID,-0.0509425,VALID,18.323,VALID,135,VALID,1.13207,
2005-07-16, 02:04:00,VALID,918.209,VALID,0,VALID,98.1997,VALID,-0.0679233,VALID,18.3202,VALID,128,VALID,1.37274,
2005-07-16, 02:05:00,VALID,918.207,VALID,0,VALID,97.6923,VALID,-0.101885,VALID,18.3105,VALID,109,VALID,0.830171,
2005-07-16, 02:06:00,VALID,918.197,VALID,0,VALID,97.2218,VALID,-0.101885,VALID,18.3137,VALID,139,VALID,0.878348,
2005-07-16, 02:07:00,VALID,918.18,VALID,0,VALID,96.8047,VALID,-0.0849042,VALID,18.3301,VALID,104,VALID,1.42416,
2005-07-16, 02:08:00,VALID,918.148,VALID,0,VALID,96.6598,VALID,-0.0339617,VALID,18.3463,VALID,117,VALID,1.34549,
2005-07-16, 02:09:00,VALID,918.137,VALID,0,VALID,96.5122,VALID,-0.0849042,VALID,18.3523,VALID,136,VALID,0.870617,
2005-07-16, 02:10:00,VALID,918.117,VALID,0,VALID,96.4677,VALID,-0.0509425,VALID,18.3686,VALID,136,VALID,1.01699,
2005-07-16, 02:11:00,VALID,918.081,VALID,0.2,VALID,96.2923,VALID,-0.0679233,VALID,18.3557,VALID,130,VALID,1.3109,
2005-07-16, 02:12:00,VALID,918.051,VALID,0,VALID,96.1206,VALID,-0.0509425,VALID,18.3587,VALID,130,VALID,1.19766,
2005-07-16, 02:13:00,VALID,918.025,VALID,0,VALID,96.1435,VALID,0.0169808,VALID,18.3511,VALID,111,VALID,1.22838,
2005-07-16, 02:14:00,VALID,918.029,VALID,0,VALID,96.3457,VALID,0.0339617,VALID,18.3446,VALID,111,VALID,1.00312,
2005-07-16, 02:15:00,VALID,918.013,VALID,0,VALID,96.4703,VALID,0.0169808,VALID,18.3382,VALID,133,VALID,1.03325,
2005-07-16, 02:16:00,VALID,918.004,VALID,0,VALID,96.6623,VALID,0.0339617,VALID,18.3223,VALID,133,VALID,1.08949,
2005-07-16, 02:17:00,VALID,917.988,VALID,0,VALID,96.7933,VALID,0.0509425,VALID,18.3096,VALID,137,VALID,1.35121,
2005-07-16, 02:18:00,VALID,917.986,VALID,0,VALID,96.9331,VALID,0.0509425,VALID,18.296,VALID,132,VALID,1.31133,
2005-07-16, 02:19:00,VALID,917.982,VALID,0,VALID,96.9115,VALID,0.0339617,VALID,18.2962,VALID,138,VALID,1.20941,
2005-07-16, 02:20:00,VALID,917.978,VALID,0,VALID,96.9509,VALID,0.0339617,VALID,18.3029,VALID,131,VALID,1.49041,
2005-07-16, 02:21:00,VALID,917.991,VALID,0,VALID,97.1646,VALID,0.0169808,VALID,18.2994,VALID,130,VALID,1.15098,
2005-07-16, 02:22:00,VALID,917.98,VALID,0,VALID,97.3401,VALID,0.0339617,VALID,18.3061,VALID,127,VALID,0.728277,
2005-07-16, 02:23:00,VALID,917.968,VALID,0.2,VALID,97.2218,VALID,0.0169808,VALID,18.2805,VALID,106,VALID,1.18304,
2005-07-16, 02:24:00,VALID,917.954,VALID,0,VALID,96.9904,VALID,0.0169808,VALID,18.2612,VALID,103,VALID,1.13207,
2005-07-16, 02:25:00,VALID,917.937,VALID,0,VALID,96.9649,VALID,0.0339617,VALID,18.2547,VALID,138,VALID,0.919829,
2005-07-16, 02:26:00,VALID,917.912,VALID,0,VALID,96.9827,VALID,0.0169808,VALID,18.2711,VALID,103,VALID,1.09837,
2005-07-16, 02:27:00,VALID,917.905,VALID,0,VALID,97.1773,VALID,0.0169808,VALID,18.2547,VALID,113,VALID,0.907552,
2005-07-16, 02:28:00,VALID,917.865,VALID,0,VALID,97.4202,VALID,0.0169808,VALID,18.2448,VALID,126,VALID,0.917515,
2005-07-16, 02:29:00,VALID,917.842,VALID,0,VALID,97.7966,VALID,0.0169808,VALID,18.2646,VALID,142,VALID,1.58594,
2005-07-16, 02:30:00,VALID,917.838,VALID,0,VALID,97.986,VALID,0.0339617,VALID,18.2706,VALID,112,VALID,1.27493,
2005-07-16, 02:31:00,VALID,917.805,VALID,0,VALID,98.0649,VALID,0.0339617,VALID,18.2706,VALID,139,VALID,1.43062,
2005-07-16, 02:32:00,VALID,917.778,VALID,0,VALID,98.0433,VALID,0.0169808,VALID,18.2614,VALID,120,VALID,1.133,
2005-07-16, 02:33:00,VALID,917.735,VALID,0,VALID,97.8678,VALID,0,VALID,18.2582,VALID,121,VALID,1.28611,
2005-07-16, 02:34:00,VALID,917.712,VALID,0,VALID,97.8309,VALID,0,VALID,18.2549,VALID,132,VALID,1.71609,
2005-07-16, 02:35:00,VALID,917.678,VALID,0,VALID,98.0382,VALID,0,VALID,18.2805,VALID,154,VALID,1.712,
2005-07-16, 02:36:00,VALID,917.657,VALID,0.2,VALID,98.2594,VALID,0.0169808,VALID,18.2736,VALID,152,VALID,1.58519,
2005-07-16, 02:37:00,VALID,917.615,VALID,0,VALID,98.4196,VALID,0,VALID,18.2741,VALID,145,VALID,1.26474,
2005-07-16, 02:38:00,VALID,917.589,VALID,0,VALID,98.5061,VALID,0,VALID,18.2713,VALID,138,VALID,2.14482,
2005-07-16, 02:39:00,VALID,917.58,VALID,0,VALID,98.5977,VALID,0.0169808,VALID,18.2646,VALID,141,VALID,1.88758,
2005-07-16, 02:40:00,VALID,917.549,VALID,0,VALID,98.7248,VALID,0.0169808,VALID,18.2549,VALID,141,VALID,1.74119,
2005-07-16, 02:41:00,VALID,917.534,VALID,0,VALID,98.7426,VALID,0,VALID,18.2483,VALID,142,VALID,1.82487,
2005-07-16, 02:42:00,VALID,917.529,VALID,0,VALID,98.6396,VALID,0,VALID,18.2582,VALID,141,VALID,1.86354,
2005-07-16, 02:43:00,VALID,917.506,VALID,0,VALID,98.6129,VALID,0,VALID,18.2614,VALID,144,VALID,1.46218,
2005-07-16, 02:44:00,VALID,917.468,VALID,0,VALID,98.6231,VALID,0.0339617,VALID,18.2609,VALID,144,VALID,1.53216,
2005-07-16, 02:45:00,VALID,917.453,VALID,0,VALID,98.6663,VALID,0.0509425,VALID,18.251,VALID,142,VALID,1.99361,
2005-07-16, 02:46:00,VALID,917.451,VALID,0,VALID,98.6905,VALID,0.0169808,VALID,18.251,VALID,147,VALID,1.41061,
2005-07-16, 02:47:00,VALID,917.441,VALID,0,VALID,98.7541,VALID,0.0339617,VALID,18.2579,VALID,150,VALID,1.57085,
2005-07-16, 02:48:00,VALID,917.431,VALID,0,VALID,98.8139,VALID,0.0339617,VALID,18.251,VALID,143,VALID,1.82138,
2005-07-16, 02:49:00,VALID,917.429,VALID,0,VALID,98.8329,VALID,0,VALID,18.245,VALID,143,VALID,1.44004,
2005-07-16, 02:50:00,VALID,917.418,VALID,0,VALID,98.7566,VALID,0,VALID,18.2517,VALID,151,VALID,1.50881,
2005-07-16, 02:51:00,VALID,917.418,VALID,0,VALID,98.7897,VALID,0,VALID,18.2416,VALID,133,VALID,1.78212,
2005-07-16, 02:52:00,VALID,917.419,VALID,0,VALID,98.8533,VALID,0,VALID,18.2284,VALID,122,VALID,1.11719,
2005-07-16, 02:53:00,VALID,917.421,VALID,0,VALID,98.9321,VALID,0.0339617,VALID,18.2284,VALID,131,VALID,1.53437,
2005-07-16, 02:54:00,VALID,917.427,VALID,0,VALID,98.8838,VALID,0,VALID,18.2125,VALID,131,VALID,1.80114,
2005-07-16, 02:55:00,VALID,917.419,VALID,0,VALID,98.9359,VALID,0,VALID,18.2028,VALID,127,VALID,1.51669,
2005-07-16, 02:56:00,VALID,917.41,VALID,0,VALID,98.9728,VALID,0,VALID,18.1934,VALID,121,VALID,1.44497,
2005-07-16, 02:57:00,VALID,917.414,VALID,0,VALID,99.0796,VALID,0.0169808,VALID,18.1998,VALID,133,VALID,1.32515,
2005-07-16, 02:58:00,VALID,917.409,VALID,0,VALID,99.1343,VALID,0,VALID,18.1867,VALID,128,VALID,1.74876,
2005-07-16, 02:59:00,VALID,917.4,VALID,0,VALID,98.9575,VALID,0,VALID,18.1636,VALID,129,VALID,2.11919,
2005-07-16, 03:00:00,VALID,917.382,VALID,0,VALID,98.8355,VALID,0,VALID,18.1872,VALID,128,VALID,1.99199,
2005-07-16, 03:01:00,VALID,917.365,VALID,0,VALID,98.7159,VALID,0.0339617,VALID,18.1902,VALID,133,VALID,2.17727,
2005-07-16, 03:02:00,VALID,917.354,VALID,0,VALID,98.5099,VALID,0.0169808,VALID,18.1996,VALID,131,VALID,2.23742,
2005-07-16, 03:03:00,VALID,917.33,VALID,0,VALID,98.2874,VALID,0,VALID,18.216,VALID,138,VALID,2.31138,
2005-07-16, 03:04:00,VALID,917.337,VALID,0,VALID,98.206,VALID,0.0169808,VALID,18.2383,VALID,140,VALID,1.32832,
2005-07-16, 03:05:00,VALID,917.316,VALID,0,VALID,98.0878,VALID,0,VALID,18.2317,VALID,132,VALID,1.5918,
2005-07-16, 03:06:00,VALID,917.33,VALID,0,VALID,97.9237,VALID,0,VALID,18.245,VALID,140,VALID,1.5806,
2005-07-16, 03:07:00,VALID,917.334,VALID,0,VALID,97.7978,VALID,0.0169808,VALID,18.2351,VALID,133,VALID,1.36346,
2005-07-16, 03:08:00,VALID,917.315,VALID,0,VALID,97.6541,VALID,0,VALID,18.2489,VALID,138,VALID,2.14657,
2005-07-16, 03:09:00,VALID,917.308,VALID,0,VALID,97.6681,VALID,0,VALID,18.2549,VALID,135,VALID,1.35696,
2005-07-16, 03:10:00,VALID,917.319,VALID,0.2,VALID,97.7864,VALID,0.0169808,VALID,18.2448,VALID,144,VALID,1.27793,
2005-07-16, 03:11:00,VALID,917.322,VALID,0,VALID,97.8309,VALID,0,VALID,18.2487,VALID,139,VALID,1.51582,
2005-07-16, 03:12:00,VALID,917.335,VALID,0,VALID,97.9822,VALID,0.0339617,VALID,18.2317,VALID,141,VALID,1.78809,
2005-07-16, 03:13:00,VALID,917.334,VALID,0,VALID,98.0801,VALID,0.0169808,VALID,18.2287,VALID,131,VALID,1.75291,
2005-07-16, 03:14:00,VALID,917.363,VALID,0,VALID,98.1742,VALID,0.0339617,VALID,18.222,VALID,140,VALID,1.71391,
2005-07-16, 03:15:00,VALID,917.379,VALID,0,VALID,98.2632,VALID,0,VALID,18.2356,VALID,137,VALID,1.78958,
2005-07-16, 03:16:00,VALID,917.391,VALID,0,VALID,98.3586,VALID,0,VALID,18.2294,VALID,125,VALID,1.70141,
2005-07-16, 03:17:00,VALID,917.406,VALID,0,VALID,98.4247,VALID,0,VALID,18.1962,VALID,124,VALID,1.57422,
2005-07-16, 03:18:00,VALID,917.409,VALID,0,VALID,98.4514,VALID,0.0169808,VALID,18.1837,VALID,126,VALID,1.76406,
2005-07-16, 03:19:00,VALID,917.429,VALID,0,VALID,98.3802,VALID,0.0169808,VALID,18.1899,VALID,131,VALID,1.95767,
2005-07-16, 03:20:00,VALID,917.428,VALID,0,VALID,98.3472,VALID,0,VALID,18.1973,VALID,137,VALID,1.50019,
2005-07-16, 03:21:00,VALID,917.423,VALID,0,VALID,98.056,VALID,0.0169808,VALID,18.1874,VALID,122,VALID,1.94074,
2005-07-16, 03:22:00,VALID,917.426,VALID,0,VALID,97.8017,VALID,0,VALID,18.1844,VALID,137,VALID,2.16939,
2005-07-16, 03:23:00,VALID,917.403,VALID,0,VALID,97.5321,VALID,0,VALID,18.1835,VALID,126,VALID,1.84266,
2005-07-16, 03:24:00,VALID,917.397,VALID,0,VALID,97.2994,VALID,-0.0169808,VALID,18.2068,VALID,130,VALID,1.9693,
2005-07-16, 03:25:00,VALID,917.386,VALID,0,VALID,97.1748,VALID,0,VALID,18.2061,VALID,129,VALID,1.62674,
2005-07-16, 03:26:00,VALID,917.371,VALID,0,VALID,97.0654,VALID,0,VALID,18.2157,VALID,136,VALID,1.94478,
2005-07-16, 03:27:00,VALID,917.37,VALID,0,VALID,96.9014,VALID,0,VALID,18.2192,VALID,143,VALID,1.90407,
2005-07-16, 03:28:00,VALID,917.353,VALID,0,VALID,96.7246,VALID,0,VALID,18.2485,VALID,126,VALID,1.96931,
2005-07-16, 03:29:00,VALID,917.354,VALID,0,VALID,96.5415,VALID,0,VALID,18.2508,VALID,126,VALID,1.76153,
2005-07-16, 03:30:00,VALID,917.37,VALID,0,VALID,96.3139,VALID,0,VALID,18.2577,VALID,131,VALID,1.7258,
2005-07-16, 03:31:00,VALID,917.359,VALID,0,VALID,96.2834,VALID,0.0169808,VALID,18.2709,VALID,127,VALID,1.46429,
2005-07-16, 03:32:00,VALID,917.372,VALID,0,VALID,96.2859,VALID,0,VALID,18.281,VALID,129,VALID,1.7248,
2005-07-16, 03:33:00,VALID,917.361,VALID,0,VALID,96.2465,VALID,0,VALID,18.2743,VALID,117,VALID,1.27361,
2005-07-16, 03:34:00,VALID,917.367,VALID,0,VALID,96.3342,VALID,0,VALID,18.2808,VALID,116,VALID,1.52461,